Weather Roundup
Issued by NWS Springfield, MO

Home | Current Version | Previous Version | Text Only | Print | Product List | Glossary On
Versions: 1 2 3 4 5 6 7 8 9 10 11 12 13 14 15 16 17 18 19 20 21 22 23 24 25 26 27 28 29 30 31 32 33 34 35 36 37 38 39 40 41 42 43 44 45 46 47 48 49 50
000
NZUS99 KSGF 051807
HRRSGF

HOURLY WEATHER
NATIONAL WEATHER SERVICE SPRINGFIELD MO
1200 PM CST MON DEC 05 2016

......SGF CWA......

CITY           SKY/WX    TMP DP  RH WIND       PRES   REMARKS
SPRINGFIELD    CLOUDY    42  35  76 SE20G26   29.91F
6HR MIN TEMP:  31; 6HR MAX TEMP:  42;

JOPLIN         CLOUDY    48  37  65 S9        29.89F
6HR MIN TEMP:  31; 6HR MAX TEMP:  48;

WEST PLAINS    MOSUNNY   43  36  76 SE12      29.96F
6HR MIN TEMP:  30; 6HR MAX TEMP:  43;

ROLLA          CLOUDY    42  37  82 SE10      29.94F
6HR MIN TEMP:  31; 6HR MAX TEMP:  42;

OSAGE BEACH    CLOUDY    39  35  86 S9        29.95F WCI  33
BRANSON        CLOUDY    39  39 100 SE13G18   29.94F WCI  32

......SURROUNDING SGF CWA......

CITY           SKY/WX    TMP DP  RH WIND       PRES   REMARKS
CHANUTE        MOSUNNY   49  40  71 S15G24    29.85F
PARSONS        MOSUNNY   49  41  74 S13       29.87F
COFFEYVILLE    PTSUNNY   48  42  80 S16G22    29.88F
EMPORIA        SUNNY     45  40  82 S18G25    29.79F
GROVE OK       CLOUDY    48  39  71 SE7       29.90F
ROGERS AR      CLOUDY    45  37  73 SE7       29.89F
SILOAM SPRINGS CLOUDY    45  37  76 S7        29.89F
HARRISON AR    CLOUDY    39  38  96 SE10      29.92F WCI  32
NEAR YELLVILLE CLOUDY    41  36  81 E7        29.93F

......KANSAS AND MISSOURI......

CITY           SKY/WX    TMP DP  RH WIND       PRES   REMARKS
KANSAS CTY INT MOSUNNY   47  37  68 S17G26    29.82F
DOWNTOWN KC    SUNNY     47  40  76 S12       29.84F
COLUMBIA       MOSUNNY   41  39  93 SE15      29.94F
SEDALIA        SUNNY     50  36  58 S16       29.91F
ST JOSEPH      SUNNY     50  39  66 S16       29.81F
ST LOUIS       CLOUDY    43  35  73 SE12      30.01F
SPIRIT OF STL  CLOUDY    43  37  79 SE9       30.00F
KIRKSVILLE     FOG       35  35 100 SE9       29.91F VSB 1/4 WCI  28
WICHITA        MOSUNNY   50  38  63 S25G31    29.74F
TOPEKA         MOSUNNY   47  40  76 S15       29.81F
OLATHE         MOSUNNY   45  39  79 S22G28    29.84F

......TENNESSEE......

CITY           SKY/WX    TMP DP  RH WIND       PRES   REMARKS
MEMPHIS        CLOUDY    46  41  82 E10G25    29.97F
NASHVILLE      CLOUDY    45  41  86 NE9       30.03F

......ARKANSAS.......

CITY           SKY/WX    TMP DP  RH WIND       PRES   REMARKS
FAYETTEVILLE   MOSUNNY   45  41  86 CALM      29.89F
FT SMITH       PTSUNNY   48  40  73 E13       29.89F
LITTLE ROCK    DRIZZLE   43  42  97 E10       29.95F

......OKLAHOMA.......

CITY           SKY/WX    TMP DP  RH WIND       PRES   REMARKS
TULSA          PTSUNNY   44  40  85 SE15      29.87F
PONCA CITY     SUNNY     51  38  60 S13G20    29.81F
MCALESTER      CLOUDY    47  42  83 CALM      29.87F
OKLAHOMA CITY  PTSUNNY   49  41  74 S18       29.82F

......IOWA............

CITY           SKY/WX    TMP DP  RH WIND       PRES   REMARKS
DES MOINES     MOSUNNY   48  37  65 S17G25    29.81F
QUAD CITIES    CLOUDY    35  32  88 S8        29.96F FOG     WCI  29

......ILLINOIS........

CITY           SKY/WX    TMP DP  RH WIND       PRES   REMARKS
QUINCY         FOG       36  35  96 S12       29.96F VSB 1/2 WCI  28
CHICAGO        CLOUDY    32  31  96 S13       30.02F FOG     WCI  22




USA.gov is the U.S. government's official web portal to all federal, state and local government web resources and services.